#timestamp,LO_Frequency,Hit,StdDev 
1552107615.6,286047000.7,N
1552107635.4,286047000.7,N
1552107655.3,286046999.9,N
1552107675.1,286047001.0,N
1552107676.0,286047001.0,N
1552107695.8,286047000.9,N
1552107715.7,286047001.0,N
1552107735.5,286046999.9,N
1552107755.3,286047000.0,N
1552107775.2,286047001.0,N
1552107795.9,286047001.0,N
1552107815.7,286047000.0,N
1552107835.5,286047000.9,N
1552107855.4,286047001.0,N
1552107875.2,286047001.0,N
1552107895.0,286047000.7,N
1552107895.9,286047000.7,N
1552107915.8,286047000.7,N
1552107935.6,286047000.7,N
1552107955.4,286047000.7,N
1552107975.3,286047000.3,N
1552107995.1,286047000.0,N
1552107996.0,286047000.0,N
1552108015.8,286047000.3,N
1552108035.7,286047001.0,N
1552108055.5,286047001.0,N
1552108075.3,286047001.0,N
1552108095.2,286047000.9,N
1552108115.9,286047000.0,N
1552108135.7,286047000.0,N
1552108155.6,286047000.3,N
1552108175.4,286047000.7,N
1552108195.2,286047000.3,N
1552108215.0,286047000.4,N
1552108215.9,286047000.4,N
1552108235.8,286047000.4,N
1552108255.6,286047000.5,N
1552108275.4,286047000.6,N
1552108295.3,286046998.2,Y
1552108315.1,286046998.9,P
1552108335.8,286046998.5,N
1552108355.7,286047001.1,N
1552108375.5,286046998.4,N
1552108395.3,286046998.7,N
1552108415.2,286046998.5,N
1552108435.9,286046998.6,N
1552108455.7,286046998.4,N
1552108475.6,286046998.7,N
1552108495.4,286046998.8,N
1552108515.2,286046999.6,N
1552108535.0,286046999.3,N
1552108536.0,286046999.3,N
1552108555.8,286046999.1,N
1552108575.6,286046996.6,Y
1552108595.5,286046999.3,P
1552108615.3,286046999.4,P
1552108635.1,286046999.1,P
1552108655.9,286046999.1,Y
1552108675.7,286046998.7,P
1552108695.5,286046998.7,P
1552108715.3,286046999.2,P
1552108735.2,286046998.9,Y
1552108755.0,286047001.2,P
1552108755.9,286047001.2,N
1552108775.8,286046998.2,N
1552108795.6,286046998.8,N
1552108815.4,286047000.7,N
1552108835.2,286047000.8,N
1552108855.1,286046998.6,N
1552108856.0,286046998.6,N
1552108875.8,286046998.3,N
1552108895.6,286046998.3,N
1552108915.5,286046998.4,N
1552108935.3,286046998.3,N
1552108955.1,286046998.1,N
1552108975.9,286046998.7,N
1552108995.7,286046998.7,N
1552109015.5,286046998.7,N
1552109035.4,286046998.7,N
1552109055.2,286046998.8,N
1552109075.0,286046998.9,N
1552109075.9,286046998.9,N
1552109095.7,286046998.8,N
1552109115.6,286046998.9,N
1552109135.4,286046998.9,N
1552109155.2,286046998.9,N
1552109175.1,286046998.8,N
1552109176.0,286046998.8,N
1552109195.8,286046998.5,N
1552109215.6,286046998.8,N
1552109235.5,286046998.8,N
1552109255.3,286046998.7,N
1552109275.1,286046998.7,N
1552109295.9,286046998.4,N
1552109315.7,286046998.3,Y
1552109335.5,286047000.4,P
1552109355.4,286047000.3,N
1552109375.2,286047000.4,N
1552109395.0,286047000.0,N
1552109395.9,286047000.0,N
1552109415.8,286047000.0,N
1552109435.6,286047002.7,Y
1552109455.4,286047000.0,P
1552109475.3,286046999.9,P
1552109495.1,286047000.2,P
1552109496.0,286047000.2,N
1552109515.8,286047002.4,Y
1552109535.7,286047000.2,P
1552109555.5,286047000.1,N
1552109575.3,286047002.3,P
1552109595.2,286047002.3,N
1552109615.9,286046999.8,N
1552109635.7,286047002.5,N
1552109655.5,286046999.7,N
1552109675.4,286046999.7,N
1552109695.2,286046999.7,N
1552109715.0,286047002.8,N
1552109715.9,286047002.8,N
1552109735.8,286046999.7,N
1552109755.6,286047002.8,N
1552109775.4,286047002.2,N
1552109795.3,286047002.7,N
1552109815.1,286047002.7,N
1552109816.0,286047002.7,N
1552109835.8,286047002.7,N
1552109855.7,286047002.7,N
1552109875.5,286047002.1,N
1552109895.3,286047002.4,N
1552109915.2,286047002.3,N
1552109935.9,286047002.6,N
1552109955.7,286047002.2,N
1552109975.5,286047001.8,N
1552109995.4,286047001.7,N
1552110015.2,286047002.0,N
1552110035.0,286047001.3,N
1552110035.9,286047001.3,N
1552110055.8,286047001.6,N
1552110075.6,286047001.5,N
1552110095.4,286047001.8,N
1552110115.3,286047004.0,Y
1552110135.1,286047002.3,P
1552110155.8,286047002.6,P
1552110175.7,286047002.8,P
1552110195.5,286047002.0,Y
1552110215.3,286046998.4,P
1552110235.2,286047000.7,N
1552110255.0,286047001.0,N
1552110255.9,286047001.0,N
1552110275.7,286047001.0,N
1552110295.6,286047001.2,N
1552110315.4,286047000.7,N
1552110335.2,286047001.0,N
1552110355.1,286047001.0,N
1552110356.0,286047001.0,N
1552110375.8,286047000.9,N
1552110395.6,286046999.9,N
1552110415.5,286047000.2,N
1552110435.3,286047000.2,N
1552110455.1,286046999.8,N
1552110475.9,286047000.3,N
1552110495.7,286046999.7,N
1552110515.5,286047000.3,N
1552110535.4,286047002.7,Y
1552110555.2,286047000.5,P
1552110575.0,286047002.8,P
1552110575.9,286047002.8,N
1552110595.8,286046999.9,N
1552110615.6,286047002.4,N
1552110635.4,286047002.8,N
1552110655.3,286047002.1,N
1552110675.1,286047001.3,N
1552110676.0,286047001.3,N
1552110695.8,286047004.4,Y
1552110715.7,286047002.4,P
1552110735.5,286047002.6,P
1552110755.3,286047002.5,P
1552110775.2,286047002.0,Y
1552110795.9,286046998.4,P
1552110815.7,286047000.7,N
1552110835.6,286047001.2,N
1552110855.4,286047000.5,N
1552110875.2,286047000.0,N
1552110895.0,286047001.0,N
1552110896.0,286047001.0,N
1552110915.8,286047000.2,N
1552110935.6,286047001.1,N
1552110955.4,286047000.8,N
1552110975.3,286047000.3,N
1552110995.1,286047001.0,N
1552111015.8,286047002.7,Y
1552111035.7,286047000.5,P
1552111055.5,286047000.8,P
1552111075.3,286047001.0,P
1552111095.2,286046999.9,N
1552111115.0,286047002.4,Y
1552111115.9,286047002.4,P
1552111135.7,286047000.0,N
1552111155.6,286046999.9,N
1552111175.4,286046999.9,N
1552111195.2,286047000.5,N
